Location: Bergnershof
(48.9468°N, 10.9431°E)
Time: 05:00:00
(UTC+00:00)

SAR-Lupe-4 - Pass Details

Date: 03 March 2021
Orbit: 481 x 485 km, 98.2° (Epoch: 26 March)

Event Time Altitude Azimuth Distance (km) Brightness Sun altitude
Rises 18:04:35 0° 17° (NNE) 2,556 7.1 -10.9°
Reaches altitude 10° 18:06:40 10° 21° (NNE) 1,671 6.1 -11.3°
Maximum altitude 18:10:14 62° 103° (ESE) 549 3.5 -11.8°
Drops below altitude 10° 18:13:46 10° 184° (S) 1,657 6.3 -12.4°
Sets 18:15:50 0° 188° (S) 2,532 7.3 -12.8°
